Bismarck, ND

7:03 AM CDT on May 24, 2017 (GMT -0500)
Bismarck Municipal

Weather History for KBIS - December, 2010

Change the Weather History Date:

Saturday, December 4, 2010

  Actual Average Record
Temperature  
Mean Temperature 16 °F 20 °F  
Max Temperature 22 °F 30 °F 65 °F (1979)
Min Temperature 10 °F 10 °F -20 °F (1875)
Degree Days  
Heating Degree Days 49 45  
Month to date heating degree days 198 178  
Since 1 July heating degree days 2065 2164  
Cooling Degree Days 0 0  
Month to date cooling degree days 0 0  
Year to date cooling degree days 507 520  
Moisture  
Dew Point 14 °F    
Average Humidity 82    
Maximum Humidity 92    
Minimum Humidity 71    
Precipitation  
Precipitation T in 0.02 in 0.45 in (1926)
Month to date precipitation 0.48 0.07  
Year to date precipitation 22.26 17.43  
Snow  
Snow T in 0.30 in 4.40 in (1926)
Month to date snowfall 6.6 1.2  
Since 1 July snowfall 20.1 12.4  
Snow Depth 10.00 in    
Sea Level Pressure  
Sea Level Pressure 30.49 in    
Wind  
Wind Speed 6 mph (WNW)    
Max Wind Speed 18 mph    
Max Gust Speed 23 mph    
Visibility 7 miles    
Events Snow    
T = Trace of Precipitation, MM = Missing Value Source: NWS Daily Summary

Daily Weather History Graph

Daily Weather History Graph

Search for Another Location

Airport or City:

Trip Planner

Search our weather history database for the weather conditions in past years. The results will help you decide how hot, cold, wet, or windy it might be!

Date:

Astronomy

Dec. 04, 2010 Rise Set
Actual Time 8:10 AM CST 4:55 PM CST
Civil Twilight 7:36 AM CST 5:30 PM CST
Nautical Twilight 6:57 AM CST 6:08 PM CST
Astronomical Twilight 6:21 AM CST 6:45 PM CST
Moon 7:11 AM CST (12/4) 3:57 PM CST (12/4)
Length of Visible Light 9h 54m
Length of Day
8h 44m
Waning Crescent, 1% of the Moon is Illuminated
Dec 4
Waning Crescent
Dec 5
New
Dec 13
First Quarter
Dec 21
Full
Dec 27
Last Quarter

Hourly Weather History & Observations

Time (CST) Temp. Windchill Dew Point Humidity Pressure Visibility Wind Dir Wind Speed Gust Speed Precip Events Conditions
12:01 AM 17.6 °F 3.2 °F 15.8 °F 93% 30.29 in 7.0 mi NNW 15.0 mph - 0.12 in   Overcast
12:52 AM 18.0 °F 4.2 °F 15.1 °F 88% 30.41 in 10.0 mi NNW 13.8 mph - 0.49 in   Overcast
1:52 AM 19.0 °F 11.1 °F 15.1 °F 85% 30.43 in 10.0 mi NNW 5.8 mph - 0.02 in   Overcast
2:52 AM 19.0 °F 6.1 °F 15.1 °F 85% 30.44 in 10.0 mi NW 12.7 mph 21.9 mph N/A   Overcast
3:21 AM 19.4 °F 9.5 °F 15.8 °F 86% 30.35 in 10.0 mi NW 8.1 mph - N/A   Overcast
3:52 AM 18.0 °F 4.8 °F 14.0 °F 84% 30.45 in 10.0 mi NW 12.7 mph - N/A   Overcast
4:52 AM 18.0 °F 6.9 °F 14.0 °F 84% 30.47 in 10.0 mi NW 9.2 mph - N/A   Overcast
5:44 AM 17.6 °F 8.2 °F 12.2 °F 79% 30.39 in 10.0 mi NW 6.9 mph - N/A   Mostly Cloudy
5:52 AM 16.0 °F 4.4 °F 12.0 °F 84% 30.49 in 9.0 mi WNW 9.2 mph - N/A   Mostly Cloudy
6:05 AM 15.8 °F 7.2 °F 12.2 °F 86% 30.40 in 8.0 mi West 5.8 mph - N/A   Mostly Cloudy
6:52 AM 16.0 °F 5.3 °F 12.0 °F 84% 30.51 in 9.0 mi NW 8.1 mph - N/A   Overcast
6:59 AM 15.8 °F 8.6 °F 12.2 °F 86% 30.41 in 9.0 mi WNW 4.6 mph - N/A   Overcast
7:52 AM 17.1 °F 10.0 °F 12.9 °F 84% 30.53 in 9.0 mi West 4.6 mph - N/A   Overcast
7:59 AM 17.6 °F - 12.2 °F 79% 30.43 in 9.0 mi Calm Calm - N/A   Overcast
8:52 AM 17.1 °F 11.7 °F 14.0 °F 88% 30.54 in 6.0 mi WSW 3.5 mph - N/A   Overcast
9:52 AM 19.0 °F 13.9 °F 15.1 °F 85% 30.56 in 4.0 mi NW 3.5 mph - N/A   Overcast
10:19 AM 19.4 °F 9.5 °F 15.8 °F 86% 30.45 in 4.0 mi NW 8.1 mph - N/A   Haze
10:40 AM 19.4 °F 10.4 °F 15.8 °F 86% 30.46 in 4.0 mi NW 6.9 mph - 0.00 in   Haze
10:52 AM 21.0 °F 12.4 °F 15.1 °F 78% 30.56 in 4.0 mi NW 6.9 mph - 0.00 in   Haze
11:52 AM 21.0 °F 12.4 °F 15.1 °F 78% 30.56 in 3.0 mi West 6.9 mph - N/A   Haze
12:52 PM 21.0 °F 14.6 °F 14.0 °F 74% 30.55 in 8.0 mi WNW 4.6 mph - N/A   Overcast
1:52 PM 21.0 °F 12.4 °F 15.1 °F 78% 30.55 in 7.0 mi WNW 6.9 mph - N/A   Overcast
2:52 PM 21.2 °F 14.9 °F 15.8 °F 80% 30.44 in 3.0 mi WNW 4.6 mph - N/A   Haze
3:07 PM 21.2 °F 12.6 °F 15.8 °F 80% 30.44 in 2.5 mi NW 6.9 mph - 0.00 in Snow Light Snow
3:14 PM 19.4 °F 12.8 °F 15.8 °F 86% 30.44 in 3.0 mi NW 4.6 mph - 0.00 in   Haze
3:52 PM 19.9 °F 12.1 °F 15.1 °F 81% 30.55 in 5.0 mi WNW 5.8 mph - 0.00 in   Haze
4:21 PM 19.4 °F 9.5 °F 15.8 °F 86% 30.45 in 7.0 mi West 8.1 mph - N/A   Overcast
4:39 PM 19.4 °F 10.4 °F 15.8 °F 86% 30.46 in 6.0 mi West 6.9 mph - N/A   Overcast
4:52 PM 19.0 °F 10.0 °F 14.0 °F 81% 30.56 in 4.0 mi West 6.9 mph - N/A   Haze
5:52 PM 17.1 °F 10.0 °F 12.9 °F 84% 30.58 in 7.0 mi WNW 4.6 mph - N/A   Overcast
6:08 PM 15.8 °F 6.1 °F 12.2 °F 86% 30.48 in 8.0 mi WNW 6.9 mph - N/A   Overcast
6:52 PM 15.1 °F 7.7 °F 10.9 °F 84% 30.58 in 7.0 mi WNW 4.6 mph - N/A   Overcast
7:31 PM 14.0 °F 8.2 °F 10.4 °F 86% 30.48 in 6.0 mi WNW 3.5 mph - N/A   Overcast
7:52 PM 12.9 °F - 10.0 °F 88% 30.59 in 6.0 mi Calm Calm - N/A   Overcast
8:52 PM 12.0 °F 4.1 °F 9.0 °F 88% 30.58 in 6.0 mi WSW 4.6 mph - N/A   Overcast
9:52 PM 12.0 °F 5.9 °F 9.0 °F 88% 30.59 in 7.0 mi SW 3.5 mph - N/A   Overcast
10:52 PM 10.9 °F - 9.0 °F 92% 30.60 in 6.0 mi Calm Calm - N/A   Overcast
11:52 PM 14.0 °F 6.5 °F 10.9 °F 88% 30.60 in 7.0 mi WNW 4.6 mph - N/A   Overcast